Regional Weather Roundup
Issued by NWS Goodland, KS

Home | Current Version | Previous Version | Text Only | Print | Product List | Glossary Off
Versions: 1 2 3 4 5 6 7 8 9 10 11 12 13 14 15 16 17 18 19 20 21 22 23 24 25 26 27 28 29 30 31 32 33 34 35 36 37 38 39 40 41 42 43 44 45 46 47 48 49 50

000
ASUS43 KGLD 290408
RWRGLD

GOODLAND FORECAST AREA HOURLY WEATHER ROUNDUP
NATIONAL WEATHER SERVICE GOODLAND KS
1000 PM MDT THU AUG 28 2014

...OFFICIAL OBSERVATIONS...

CITY           SKY/WX    TMP DP  RH WIND       PRES   REMARKS
GOODLAND KS    MOCLDY    63  58  83 NW8       30.01S
HILL CITY KS   CLOUDY    69  62  78 NW7       29.90R
IMPERIAL NEB   PTCLDY    62  57  83 W7        29.97F
MCCOOK NEB     PTCLDY    66  57  72 NW9       29.93R
AKRON CO       MOCLDY    60  54  80 W9        30.08S
BURLINGTON CO  PTCLDY    60  56  86 NW9       30.05F
LIMON CO       MOCLDY    55  50  83 W8        30.15R
$$

...UNOFFICIAL OBSERVATIONS...

CITY           SKY/WX    TMP DP  RH WIND       PRES   REMARKS
COLBY KS       CLEAR     64  64 100 NW5       29.98S
GOVE KS          N/A     70  32  24 CALM        N/A
NORTON KS      LGT RAIN  68  63  83 SW6       29.91S
SHARON SPRINGS   N/A     60  58  93 CALM        N/A
WAKEENEY KS      N/A     64  53  68 MISG        N/A
KIT CARSON CO    N/A     61  52  72 CALM        N/A
YUMA CO          N/A     59  54  84 CALM        N/A
$$


USA.gov is the U.S. government's official web portal to all federal, state and local government web resources and services.